Simultaneous Nadir Overpasses (SNOs) Predictions

Prediction of SNOs between GOES-14 and NOAA-20 Satellite Orbit:

Table of predicted SNOs for the next 14.0 days since TLE Epoch: 2/21/2020
Index Date Time (GOES-14) GOES-14 Lat,Lon NOAA-20 Lat,Lon Distance(km) Time Diff (sec)
1 02/21/2020 20:16:10 -0.06,-104.03 0.24,-102.80 141.35 3
2 02/23/2020 08:36:43 0.07,-104.22 0.90,-108.08 438.82 80
3 02/24/2020 08:20:38 0.07,-104.22 -0.09,-103.54 77.73 80
4 02/26/2020 20:23:50 -0.07,-104.03 -0.15,-104.30 30.70 80
5 02/27/2020 20:02:26 -0.07,-104.03 0.91, -99.78 485.16 80
6 02/29/2020 08:24:16 0.07,-104.21 0.24,-105.06 95.32 80
7 03/01/2020 08:08:11 0.07,-104.22 -0.76,-100.52 421.31 80
8 03/02/2020 20:30:08 -0.08,-104.04 -0.46,-105.82 202.44 80
9 03/03/2020 20:08:43 -0.08,-104.03 0.53,-101.28 313.05 80
10 03/05/2020 08:30:32 0.09,-104.19 0.61,-106.56 269.51 80
11 03/06/2020 08:14:28 0.09,-104.19 -0.38,-102.02 246.84 80




NCC Satellite Simultaneous Nadir Overpasses (SNOs) Prediction Service
